Tiempo cada hora Francistown

Hoy, 4 Agosto, Miércoles

Tiempo Temperatura Precipitaciones Viento Presión Humedad
00:00 +12°C° 0 mm 4 mps 682 mmHg 63%
01:00 +11°C° 0 mm 3 mps 682 mmHg 69%
02:00 +10°C° 0 mm 3 mps 682 mmHg 75%
03:00 +10°C° 0 mm 3 mps 681 mmHg 75%
04:00 +10°C° 0 mm 2 mps 681 mmHg 75%
05:00 +9°C° 0 mm 2 mps 681 mmHg 75%
06:00 +10°C° 0 mm 2 mps 682 mmHg 71%
07:00 +11°C° 0 mm 3 mps 682 mmHg 66%
08:00 +12°C° 0 mm 3 mps 683 mmHg 62%
09:00 +16°C° 0 mm 3 mps 683 mmHg 52%
10:00 +19°C° 0 mm 3 mps 684 mmHg 43%
11:00 +22°C° 0 mm 4 mps 684 mmHg 33%
12:00 +23°C° 0 mm 4 mps 683 mmHg 30%
13:00 +25°C° 0 mm 3 mps 683 mmHg 26%
14:00 +26°C° 0 mm 3 mps 682 mmHg 23%
15:00 +25°C° 0 mm 3 mps 682 mmHg 23%
16:00 +25°C° 0 mm 3 mps 682 mmHg 23%
17:00 +25°C° 0 mm 3 mps 681 mmHg 23%
18:00 +21°C° 0 mm 3 mps 681 mmHg 28%
19:00 +19°C° 0 mm 3 mps 681 mmHg 33%
20:00 +17°C° 0 mm 3 mps 681 mmHg 39%
21:00 +16°C° 0 mm 3 mps 681 mmHg 43%
22:00 +14°C° 0 mm 3 mps 681 mmHg 47%
23:00 +13°C° 0 mm 3 mps 681 mmHg 51%

Mañana, 5 Agosto, Jueves

Tiempo Temperatura Precipitaciones Viento Presión Humedad
00:00 +13°C° 0 mm 3 mps 681 mmHg 53%
01:00 +13°C° 0 mm 2 mps 681 mmHg 56%
02:00 +13°C° 0 mm 2 mps 681 mmHg 58%
03:00 +12°C° 0 mm 2 mps 681 mmHg 60%
04:00 +12°C° 0 mm 2 mps 680 mmHg 63%
05:00 +12°C° 0 mm 2 mps 680 mmHg 65%
06:00 +13°C° 0 mm 2 mps 681 mmHg 61%
07:00 +14°C° 0 mm 2 mps 681 mmHg 57%
08:00 +15°C° 0 mm 2 mps 682 mmHg 54%
09:00 +18°C° 0 mm 2 mps 682 mmHg 45%
10:00 +20°C° 0 mm 3 mps 683 mmHg 35%
11:00 +24°C° 0 mm 3 mps 683 mmHg 26%
12:00 +25°C° 0 mm 3 mps 682 mmHg 23%
13:00 +26°C° 0 mm 3 mps 682 mmHg 20%
14:00 +27°C° 0 mm 3 mps 681 mmHg 17%
15:00 +27°C° 0 mm 3 mps 681 mmHg 18%
16:00 +26°C° 0 mm 3 mps 680 mmHg 18%
17:00 +26°C° 0 mm 3 mps 680 mmHg 18%
18:00 +24°C° 0 mm 3 mps 680 mmHg 23%
19:00 +20°C° 0 mm 3 mps 680 mmHg 27%
20:00 +18°C° 0 mm 3 mps 680 mmHg 32%
21:00 +17°C° 0 mm 3 mps 681 mmHg 35%
22:00 +16°C° 0 mm 3 mps 681 mmHg 39%
23:00 +14°C° 0 mm 3 mps 681 mmHg 42%

Pasado mañana, 6 Agosto, Viernes

Tiempo Temperatura Precipitaciones Viento Presión Humedad
00:00 +13°C° 0 mm 3 mps 680 mmHg 44%
01:00 +13°C° 0 mm 3 mps 680 mmHg 45%
02:00 +13°C° 0 mm 3 mps 680 mmHg 46%
03:00 +13°C° 0 mm 2 mps 680 mmHg 47%
04:00 +13°C° 0 mm 2 mps 679 mmHg 47%
05:00 +13°C° 0 mm 2 mps 679 mmHg 47%
06:00 +14°C° 0 mm 2 mps 680 mmHg 44%
07:00 +15°C° 0 mm 2 mps 680 mmHg 41%
08:00 +16°C° 0 mm 2 mps 681 mmHg 38%
09:00 +19°C° 0 mm 2 mps 681 mmHg 33%
10:00 +22°C° 0 mm 3 mps 682 mmHg 27%
11:00 +26°C° 0 mm 3 mps 682 mmHg 21%
12:00 +27°C° 0 mm 3 mps 682 mmHg 19%
13:00 +28°C° 0 mm 3 mps 681 mmHg 17%
14:00 +29°C° 0 mm 3 mps 680 mmHg 15%
15:00 +29°C° 0 mm 3 mps 680 mmHg 15%
16:00 +28°C° 0 mm 3 mps 680 mmHg 15%
17:00 +28°C° 0 mm 4 mps 680 mmHg 15%
18:00 +25°C° 0 mm 4 mps 680 mmHg 18%
19:00 +22°C° 0 mm 3 mps 680 mmHg 21%
20:00 +19°C° 0 mm 3 mps 680 mmHg 24%
21:00 +18°C° 0 mm 3 mps 680 mmHg 27%
22:00 +17°C° 0 mm 3 mps 680 mmHg 30%
23:00 +16°C° 0 mm 3 mps 680 mmHg 34%

7 Agosto, Sábado

Tiempo Temperatura Precipitaciones Viento Presión Humedad
00:00 +14°C° 0 mm 3 mps 680 mmHg 36%
01:00 +14°C° 0 mm 3 mps 680 mmHg 38%
02:00 +15°C° 0 mm 2 mps 679 mmHg 40%
03:00 +14°C° 0 mm 2 mps 679 mmHg 40%
04:00 +14°C° 0 mm 2 mps 679 mmHg 40%
05:00 +14°C° 0 mm 2 mps 679 mmHg 41%
06:00 +15°C° 0 mm 2 mps 680 mmHg 38%
07:00 +16°C° 0 mm 1 mps 680 mmHg 35%
08:00 +18°C° 0 mm 1 mps 681 mmHg 32%
09:00 +21°C° 0 mm 2 mps 681 mmHg 27%
10:00 +25°C° 0 mm 3 mps 682 mmHg 22%
11:00 +28°C° 0 mm 4 mps 682 mmHg 16%
12:00 +29°C° 0 mm 4 mps 682 mmHg 15%
13:00 +30°C° 0 mm 4 mps 681 mmHg 13%
14:00 +32°C° 0 mm 5 mps 681 mmHg 11%
15:00 +30°C° 0 mm 5 mps 680 mmHg 12%
16:00 +30°C° 0 mm 4 mps 680 mmHg 12%
17:00 +29°C° 0 mm 4 mps 680 mmHg 13%
18:00 +27°C° 0 mm 4 mps 680 mmHg 16%
19:00 +23°C° 0 mm 4 mps 680 mmHg 20%
20:00 +20°C° 0 mm 3 mps 680 mmHg 24%
21:00 +19°C° 0 mm 3 mps 680 mmHg 26%
22:00 +18°C° 0 mm 3 mps 680 mmHg 28%
23:00 +17°C° 0 mm 3 mps 680 mmHg 30%

8 Agosto, Domingo

Tiempo Temperatura Precipitaciones Viento Presión Humedad
00:00 +17°C° 0 mm 3 mps 680 mmHg 31%
01:00 +16°C° 0 mm 3 mps 679 mmHg 32%
02:00 +16°C° 0 mm 3 mps 679 mmHg 32%
03:00 +16°C° 0 mm 3 mps 679 mmHg 33%
04:00 +14°C° 0 mm 3 mps 679 mmHg 33%
05:00 +14°C° 0 mm 3 mps 679 mmHg 33%
06:00 +16°C° 0 mm 3 mps 680 mmHg 31%
07:00 +17°C° 0 mm 3 mps 680 mmHg 29%
08:00 +18°C° 0 mm 3 mps 681 mmHg 27%
09:00 +21°C° 0 mm 3 mps 682 mmHg 23%
10:00 +26°C° 0 mm 4 mps 682 mmHg 18%
11:00 +29°C° 0 mm 5 mps 683 mmHg 14%
12:00 +30°C° 0 mm 5 mps 682 mmHg 12%
13:00 +32°C° 0 mm 5 mps 681 mmHg 11%
14:00 +33°C° 0 mm 5 mps 681 mmHg 10%
15:00 +32°C° 0 mm 5 mps 681 mmHg 10%
16:00 +32°C° 0 mm 4 mps 680 mmHg 10%
17:00 +30°C° 0 mm 4 mps 680 mmHg 10%
18:00 +28°C° 0 mm 4 mps 680 mmHg 14%
19:00 +25°C° 0 mm 4 mps 680 mmHg 18%
20:00 +21°C° 0 mm 4 mps 680 mmHg 22%
21:00 +20°C° 0 mm 3 mps 680 mmHg 24%
22:00 +18°C° 0 mm 3 mps 680 mmHg 26%
23:00 +17°C° 0 mm 3 mps 680 mmHg 28%

9 Agosto, Lunes

Tiempo Temperatura Precipitaciones Viento Presión Humedad
00:00 +17°C° 0 mm 3 mps 679 mmHg 29%
01:00 +16°C° 0 mm 2 mps 679 mmHg 29%
02:00 +16°C° 0 mm 2 mps 679 mmHg 30%
03:00 +15°C° 0 mm 2 mps 679 mmHg 31%
04:00 +15°C° 0 mm 2 mps 679 mmHg 31%
05:00 +14°C° 0 mm 1 mps 679 mmHg 32%
06:00 +16°C° 0 mm 1 mps 680 mmHg 29%
07:00 +18°C° 0 mm 1 mps 680 mmHg 26%
08:00 +20°C° 0 mm 1 mps 681 mmHg 23%
09:00 +23°C° 0 mm 1 mps 682 mmHg 19%
10:00 +26°C° 0 mm 1 mps 682 mmHg 16%
11:00 +29°C° 0 mm 1 mps 682 mmHg 12%
12:00 +30°C° 0 mm 2 mps 682 mmHg 11%
13:00 +33°C° 0 mm 3 mps 681 mmHg 10%
14:00 +34°C° 0 mm 4 mps 681 mmHg 8%
15:00 +33°C° 0 mm 4 mps 681 mmHg 9%
16:00 +33°C° 0 mm 4 mps 681 mmHg 9%
17:00 +32°C° 0 mm 4 mps 681 mmHg 9%
18:00 +28°C° 0 mm 4 mps 681 mmHg 12%
19:00 +26°C° 0 mm 4 mps 681 mmHg 14%
20:00 +22°C° 0 mm 3 mps 681 mmHg 17%
21:00 +21°C° 0 mm 3 mps 681 mmHg 19%
22:00 +20°C° 0 mm 2 mps 680 mmHg 20%
23:00 +19°C° 0 mm 2 mps 680 mmHg 22%
Mostrar más

Necesitamos Su Consentimiento

Meteoprog y nuestros Proveedores de Servicios pueden almacenar y acceder a sus datos personales como cookies, identificadores de dispositivo u otras tecnologías similares de su dispositivo y procesar dichos datos para personalizar contenido y anuncios, además de ofrecer funciones de redes sociales y analizar el tráfico.

  • Almacenar y/o acceder a información en su dispositivo

    Se puede almacenar o acceder a cookies, identificadores de dispositivo u otra información de su dispositivo para los fines anteriormente indicados.

  • Anuncios y contenido personalizados, medición de anuncios y contenido, percepciones del público, y desarrollo de productos

    Los anuncios y el contenido pueden personalizarse en base a su perfil. Se pueden añadir más datos para personalizar mejor los anuncios y contenidos. Se puede medir el rendimiento de los anuncios y contenidos. Se puede obtener la percepción sobre el público que ha visto los anuncios y contenidos. Dichos datos pueden usarse para desarrollar o mejorar la experiencia del usuario, sistemas y software.

Al hacer clic en ‘Estoy De Acuerdo’ usted permitirá el uso de las cookies, identificadores de dispositivo, balizas web u otras tecnologías similares indicadas. Su configuración puede cambiarse desde el navegador de su dispositivo.

Para ciertos fines, los intereses legítimos pueden ser considerados por encima del consentimiento. Puede leer más sobre ello en nuestra Política de Privacidad y Cookies.